This demonstration page uses our WeatherBlox Daily Observations layout. Learn more.

Left ArrowRight Arrow

41.86663, -103.66717

Hourly Observations for May 31, 2021

Temp ( °F °C ) Dew Point ( °F °C ) Humidity (%) Winds ( mph kmh ) Pressure ( in mb ) Visibility ( mi km ) Precip ( " mm )
12:53 am 00:53 Clear 47 8.3 44 6.7 90 90 N 5 7 30.20 1023 10 16 0.00 0.00
1:53 am 01:53 Clear 46 7.8 43 6.1 89 89 N 3 6 30.20 1023 10 16 0.00 0.00
2:53 am 02:53 Clear 44 6.7 42 5.6 93 93 Calm 30.21 1023 10 16 0.00 0.00
3:53 am 03:53 Clear 42 5.6 40 4.4 92 92 E 5 7 30.22 1024 10 16 0.00 0.00
4:53 am 04:53 Clear 42 5.6 41 5 96 96 NE 3 6 30.23 1024 10 16 0.00 0.00
5:53 am 05:53 Sunny 41 5 39 3.9 93 93 Calm 30.25 1024 10 16 0.00 0.00
6:53 am 06:53 Sunny 47 8.3 44 6.7 90 90 Calm 30.25 1024 10 16 0.00 0.00
7:53 am 07:53 Sunny 52 11.1 45 7.2 77 77 Calm 30.24 1024 10 16 0.00 0.00
8:53 am 08:53 Sunny 58 14.4 48 8.9 70 70 VRB 3 6 30.23 1024 10 16 0.00 0.00
9:53 am 09:53 Sunny 64 17.8 48 8.9 56 56 VRB 5 7 30.22 1023 10 16 0.00 0.00
10:53 am 10:53 Sunny 67 19.4 53 11.7 61 61 S 7 11 30.21 1023 10 16 0.00 0.00
11:53 am 11:53 Partly Cloudy 68 20 53 11.7 59 59 SSE 14 22 30.20 1023 10 16 0.00 0.00
12:53 pm 12:53 Partly Cloudy 69 20.6 54 12.2 59 59 SSE 5 7 30.19 1022 10 16 0.00 0.00
1:53 pm 13:53 Sunny 72 22.2 59 15 64 64 E 8 13 30.17 1022 10 16 0.00 0.00
2:53 pm 14:53 Mostly Sunny 73 22.8 59 15 62 62 ESE 10 17 30.15 1021 10 16 0.00 0.00
3:53 pm 15:53 Sunny 72 22.2 58 14.4 61 61 SE 14 22 30.15 1021 10 16 0.00 0.00
4:53 pm 16:53 Sunny 72 22.2 59 15 64 64 SE 9 15 30.14 1021 10 16 0.00 0.00
5:53 pm 17:53 Sunny 71 21.7 57 13.9 61 61 SSE 12 19 30.15 1021 10 16 0.00 0.00
6:53 pm 18:53 Sunny 69 20.6 54 12.2 59 59 SSE 9 15 30.14 1021 10 16 0.00 0.00
7:53 pm 19:53 Sunny 65 18.3 48 8.9 54 54 SE 9 15 30.14 1021 10 16 0.00 0.00
8:53 pm 20:53 Clear 60 15.6 42 5.6 52 52 SE 8 13 30.14 1021 10 16 0.00 0.00
9:53 pm 21:53 Clear 54 12.2 41 5 62 62 SE 7 11 30.15 1021 10 16 0.00 0.00
10:53 pm 22:53 Clear 52 11.1 40 4.4 64 64 E 3 6 30.15 1021 10 16 0.00 0.00
11:53 pm 23:53 Clear 51 10.6 39 3.9 64 64 ESE 6 9 30.14 1021 10 16 0.00 0.00

Powered by AerisWeather